Date String (YYYY-MM-DD hh:mm:ss) UTC,Instrument flags,absolute air pressure of the measurement (hPa),sample flow rate (lpm),inlet stack bypass flow (lpm),air temperature of the measurement (°C),ambient temperature measured by the external sensor (°C),aerosol sample conditioner tube jacket temperature (°C),OPC LED temperature (°C),internal box temperature (°C),relative humidity of the measurement (%),span deviation,mass concentration of particles derived from Lorenz-Mie calculation of OPC scattering (μg/m³),mass concentration of particles derived from Lorenz-Mie calculation of OPC scattering (μg/m³),mass concentration of particles derived from Lorenz-Mie calculation of OPC scattering (μg/m³)
DateTimeUTC,F1_M11,P_M11,Q1_M11,Q2_M11,T1_M11,T2_M11,T3_M11,T4_M11,T5_M11,U1_M11,ZSPAN_M11,X0_M11,X2_M11,X1_M11
2024-06-18 08:00:00,SystemResetWarning,0815.7,5.00,000.00,030.3,029.7,000.0,038.4,032.1,010.5,0000.0,0013.06,0003.54,0002.10
2024-06-18 08:01:00,SystemResetWarning,0815.6,5.00,000.00,030.3,029.8,000.0,038.4,032.1,010.6,0000.0,0012.89,0003.52,0002.09
2024-06-18 08:02:00,SystemResetWarning,0815.6,5.00,000.00,030.4,029.8,000.0,038.4,032.1,010.7,0000.0,0012.45,0003.50,0002.09
2024-06-18 08:03:00,SystemResetWarning,0815.6,5.00,000.00,030.4,029.9,000.0,038.5,032.2,010.5,0000.0,0012.38,0003.48,0002.10
2024-06-18 08:04:00,SystemResetWarning,0815.6,5.00,000.00,030.4,029.9,000.0,038.5,032.2,010.6,0000.0,0013.07,0003.52,0002.11
2024-06-18 08:05:00,SystemResetWarning,0815.6,4.99,000.00,030.5,029.9,000.0,038.5,032.2,010.5,0000.0,0013.48,0003.52,0002.10
2024-06-18 08:06:00,SystemResetWarning,0815.6,5.00,000.00,030.5,029.9,000.0,038.6,032.2,010.6,0000.0,0013.70,0003.55,0002.11
2024-06-18 08:07:00,SystemResetWarning,0815.7,5.01,000.00,030.5,030.0,000.0,038.6,032.3,010.5,0000.0,0013.05,0003.59,0002.12
2024-06-18 08:08:00,SystemResetWarning,0815.7,5.00,000.00,030.6,030.0,000.0,038.6,032.3,010.5,0000.0,0012.76,0003.57,0002.11
2024-06-18 08:09:00,SystemResetWarning,0815.7,5.00,000.00,030.6,030.0,000.0,038.7,032.3,010.4,0000.0,0012.67,0003.55,0002.10
2024-06-18 08:10:00,SystemResetWarning,0815.7,5.00,000.00,030.6,030.1,000.0,038.7,032.4,010.5,0000.0,0013.08,0003.57,0002.10
2024-06-18 08:11:00,SystemResetWarning,0815.8,5.00,000.00,030.6,030.1,000.0,038.7,032.4,010.4,0000.0,0012.70,0003.58,0002.10
2024-06-18 08:12:00,SystemResetWarning,0815.8,5.00,000.00,030.7,030.1,000.0,038.8,032.4,010.5,0000.0,0012.54,0003.60,0002.10
2024-06-18 08:13:00,SystemResetWarning,0815.8,4.99,000.00,030.7,030.1,000.0,038.8,032.4,010.5,0000.0,0012.53,0003.63,0002.09
2024-06-18 08:14:00,SystemResetWarning,0815.8,4.99,000.00,030.7,030.1,000.0,038.8,032.3,010.4,0000.0,0011.88,0003.63,0002.07
2024-06-18 08:15:00,SystemResetWarning,0815.7,4.99,000.00,030.5,027.9,000.0,038.9,031.4,010.5,0000.0,0010.97,0003.62,0002.07
2024-06-18 08:16:00,SystemResetWarning,0815.7,5.01,000.00,030.0,026.4,000.0,038.9,030.6,010.7,0000.0,0010.13,0003.66,0002.09
2024-06-18 08:17:00,SystemResetWarning,0815.7,5.01,000.00,029.8,026.6,000.0,038.8,030.6,010.8,0000.0,0009.66,0003.64,0002.09
2024-06-18 08:18:00,SystemResetWarning,0815.7,4.99,000.00,029.7,027.0,000.0,038.6,030.8,010.9,0000.0,0009.44,0003.62,0002.08
2024-06-18 08:19:00,SystemResetWarning,0815.7,5.00,000.00,029.7,027.5,000.0,038.5,031.0,010.9,0000.0,0009.42,0003.62,0002.08
2024-06-18 08:20:00,SystemResetWarning,0815.8,5.00,000.00,029.8,027.8,000.0,038.4,031.2,010.8,0000.0,0009.25,0003.61,0002.09
2024-06-18 08:21:00,SystemResetWarning,0815.8,5.01,000.00,029.8,028.2,000.0,038.4,031.3,010.8,0000.0,0008.92,0003.59,0002.09
2024-06-18 08:22:00,SystemResetWarning,0815.8,5.00,000.00,029.8,028.4,000.0,038.4,031.4,010.8,0000.0,0008.71,0003.59,0002.10
2024-06-18 08:23:00,SystemResetWarning,0815.8,5.00,000.00,029.9,028.6,000.0,038.3,031.5,010.9,0000.0,0008.20,0003.58,0002.09
2024-06-18 08:24:00,SystemResetWarning,0815.8,5.00,000.00,029.9,028.8,000.0,038.3,031.6,010.8,0000.0,0008.28,0003.57,0002.12
2024-06-18 08:25:00,SystemResetWarning,0815.8,5.00,000.00,029.9,029.0,000.0,038.3,031.7,010.8,0000.0,0009.34,0003.61,0002.14
2024-06-18 08:26:00,SystemResetWarning,0815.8,5.01,000.00,030.0,029.1,000.0,038.3,031.7,010.8,0000.0,0009.80,0003.63,0002.16
2024-06-18 08:27:00,SystemResetWarning,0815.8,5.00,000.00,030.0,029.2,000.0,038.3,031.8,010.8,0000.0,0010.15,0003.63,0002.17
2024-06-18 08:28:00,SystemResetWarning,0815.8,5.01,000.00,030.1,029.3,000.0,038.3,031.8,010.8,0000.0,0011.69,0003.64,0002.17
2024-06-18 08:29:00,SystemResetWarning,0815.8,5.00,000.00,030.1,029.4,000.0,038.4,031.9,010.7,0000.0,0011.92,0003.64,0002.19
2024-06-18 08:30:00,SystemResetWarning,0815.8,5.00,000.00,030.1,029.5,000.0,038.4,031.9,010.7,0000.0,0012.41,0003.65,0002.22
2024-06-18 08:31:00,SystemResetWarning,0815.9,5.00,000.00,030.2,029.5,000.0,038.4,031.9,010.7,0000.0,0013.13,0003.65,0002.23
2024-06-18 08:32:00,SystemResetWarning,0815.9,5.00,000.00,030.2,029.6,000.0,038.4,031.9,010.7,0000.0,0014.22,0003.70,0002.23
2024-06-18 08:33:00,SystemResetWarning,0815.9,5.00,000.00,030.2,029.6,000.0,038.4,032.0,010.8,0000.0,0014.97,0003.75,0002.24
2024-06-18 08:34:00,SystemResetWarning,0815.8,5.00,000.00,030.3,029.7,000.0,038.5,032.0,010.7,0000.0,0015.22,0003.75,0002.26
2024-06-18 08:35:00,SystemResetWarning,0816.0,5.00,000.00,030.3,029.7,000.0,038.5,032.1,010.7,0000.0,0015.22,0003.75,0002.27
2024-06-18 08:36:00,SystemResetWarning,0816.0,5.00,000.00,030.3,029.8,000.0,038.5,032.1,010.7,0000.0,0014.19,0003.75,0002.29
2024-06-18 08:37:00,SystemResetWarning,0816.0,5.00,000.00,030.4,029.8,000.0,038.5,032.1,010.7,0000.0,0013.97,0003.80,0002.30
2024-06-18 08:38:00,SystemResetWarning,0816.1,5.00,000.00,030.4,029.8,000.0,038.6,032.1,010.8,0000.0,0013.90,0003.82,0002.30
2024-06-18 08:39:00,SystemResetWarning,0816.1,5.00,000.00,030.5,029.9,000.0,038.6,032.2,010.8,0000.0,0013.81,0003.84,0002.31
2024-06-18 08:40:00,SystemResetWarning,0816.1,5.00,000.00,030.5,029.9,000.0,038.6,032.2,010.9,0000.0,0015.71,0003.90,0002.33
2024-06-18 08:41:00,SystemResetWarning,0816.2,5.00,000.00,030.5,030.0,000.0,038.7,032.2,010.9,0000.0,0015.79,0004.00,0002.33
2024-06-18 08:42:00,SystemResetWarning,0816.2,5.00,000.00,030.6,030.0,000.0,038.7,032.3,011.3,0000.0,0016.46,0004.05,0002.34
2024-06-18 08:43:00,SystemResetWarning,0816.2,5.00,000.00,030.6,030.0,000.0,038.7,032.3,011.3,0000.0,0016.20,0004.04,0002.33
2024-06-18 08:44:00,SystemResetWarning,0816.2,5.00,000.00,030.6,030.1,000.0,038.8,032.3,011.3,0000.0,0015.73,0004.02,0002.33
2024-06-18 08:45:00,SystemResetWarning,0816.3,5.00,000.00,030.7,030.1,000.0,038.8,032.4,011.3,0000.0,0015.29,0004.01,0002.32
2024-06-18 08:46:00,SystemResetWarning,0816.3,5.00,000.00,030.7,030.1,000.0,038.8,032.4,011.5,0000.0,0015.27,0004.02,0002.32
2024-06-18 08:47:00,SystemResetWarning,0816.3,5.00,000.00,030.7,030.2,000.0,038.8,032.4,011.7,0000.0,0015.21,0004.01,0002.32
2024-06-18 08:48:00,SystemResetWarning,0816.4,5.00,000.00,030.7,030.2,000.0,038.9,032.5,012.0,0000.0,0015.27,0004.00,0002.31
2024-06-18 08:49:00,SystemResetWarning,0816.4,5.00,000.00,030.8,030.2,000.0,038.9,032.5,012.5,0000.0,0015.54,0004.00,0002.33
2024-06-18 08:50:00,SystemResetWarning,0816.5,5.00,000.00,030.8,030.2,000.0,038.9,032.5,012.5,0000.0,0016.78,0004.02,0002.37
2024-06-18 08:51:00,SystemResetWarning,0816.5,5.00,000.00,030.8,030.2,000.0,039.0,032.5,012.5,0000.0,0014.48,0003.98,0002.40
2024-06-18 08:52:00,SystemResetWarning,0816.5,5.00,000.00,030.8,030.3,000.0,039.0,032.5,012.4,0000.0,0014.33,0003.94,0002.41
2024-06-18 08:53:00,SystemResetWarning,0816.5,5.00,000.00,030.9,030.3,000.0,039.0,032.6,012.4,0000.0,0013.89,0003.93,0002.43
2024-06-18 08:54:00,SystemResetWarning,0816.5,5.00,000.00,030.9,030.3,000.0,039.1,032.6,012.6,0000.0,0013.78,0003.94,0002.45
2024-06-18 08:55:00,SystemResetWarning,0816.6,4.99,000.00,030.9,030.3,000.0,039.1,032.6,012.6,0000.0,0013.82,0003.97,0002.50
2024-06-18 08:56:00,SystemResetWarning,0816.6,5.00,000.00,030.9,030.4,000.0,039.1,032.6,012.5,0000.0,0014.00,0004.00,0002.54
2024-06-18 08:57:00,SystemResetWarning,0816.7,5.00,000.00,031.0,030.4,000.0,039.1,032.7,012.7,0000.0,0015.08,0004.05,0002.58
2024-06-18 08:58:00,SystemResetWarning,0816.7,5.00,000.00,031.0,030.1,000.0,039.2,032.5,012.9,0000.0,0016.25,0004.09,0002.61
2024-06-18 08:59:00,SystemResetWarning,0816.6,5.00,000.00,030.6,027.5,000.0,039.2,031.3,013.4,0000.0,0017.59,0004.14,0002.65
